#timestamp,LO_Frequency,Hit,StdDev 
1551603615.2,286047000.8,N
1551603635.0,286046998.2,N
1551603635.9,286046998.2,N
1551603655.7,286046997.0,N
1551603675.6,286046999.2,N
1551603695.4,286046996.2,N
1551603715.3,286046995.9,N
1551603735.1,286046995.9,N
1551603736.0,286046995.9,N
1551603755.8,286046994.5,N
1551603775.7,286046992.0,N
1551603795.5,286046990.5,N
1551603815.3,286046993.2,N
1551603835.2,286046990.4,N
1551603855.0,286046991.0,N
1551603855.9,286046991.0,N
1551603875.8,286046991.0,N
1551603895.6,286046992.9,N
1551603915.4,286046991.9,N
1551603935.3,286046994.6,N
1551603955.1,286046994.1,N
1551603975.9,286046993.9,N
1551603995.7,286046991.8,N
1551604015.5,286046994.2,N
1551604035.4,286046992.8,N
1551604055.2,286046991.8,N
1551604075.0,286046991.8,N
1551604075.9,286046991.8,N
1551604095.8,286046992.3,N
1551604115.6,286046990.4,Y
1551604135.5,286046997.5,P
1551604155.3,286046996.9,N
1551604175.1,286046997.2,N
1551604195.9,286046997.8,N
1551604215.7,286046997.9,N
1551604235.6,286046995.6,Y
1551604255.4,286046999.6,P
1551604275.2,286046997.0,N
1551604295.1,286046999.4,N
1551604296.0,286046999.4,N
1551604315.8,286046999.0,N
1551604335.6,286047000.9,N
1551604355.5,286047001.1,N
1551604375.3,286047001.2,N
1551604395.2,286047000.9,N
1551604415.9,286047001.9,N
1551604435.7,286047002.0,N
1551604455.6,286047003.9,N
1551604475.4,286047005.9,Y
1551604495.2,286047005.8,P
1551604515.1,286047007.0,N
1551604516.0,286047007.0,N
1551604535.8,286047009.2,Y
1551604555.7,286047001.4,P
1551604575.5,286047005.7,P
1551604595.3,286047005.4,N
1551604615.2,286047005.7,Y
1551604635.0,286046998.8,P
1551604635.9,286046998.8,N
1551604655.8,286047000.0,N
1551604675.6,286047000.7,N
1551604695.4,286047000.9,N
1551604715.3,286047001.0,N
1551604735.1,286047001.4,N
1551604755.9,286047004.3,N
1551604775.7,286047004.4,N
1551604795.5,286047002.1,N
1551604815.4,286047000.2,N
1551604835.2,286047001.2,N
1551604855.0,286046996.7,N
1551604855.9,286046996.7,N
1551604875.8,286046997.5,N
1551604895.6,286046996.8,N
1551604915.5,286046997.8,N
1551604935.3,286046996.5,N
1551604955.1,286046998.7,N
1551604975.9,286046998.1,N
1551604995.7,286047000.0,N
1551605015.5,286047001.7,N
1551605035.4,286047006.0,N
1551605055.2,286047007.1,N
1551605075.1,286047007.2,N
1551605076.0,286047007.2,N
1551605095.8,286047004.7,N
1551605115.6,286047005.7,N
1551605135.5,286047007.3,N
1551605155.3,286047007.4,N
1551605175.2,286047007.6,N
1551605195.9,286047002.9,N
1551605215.7,286047007.6,N
1551605235.6,286047003.8,N
1551605255.4,286047002.1,N
1551605275.2,286047002.4,N
1551605295.1,286047002.2,N
1551605296.0,286047002.2,N
1551605315.8,286047000.3,N
1551605335.7,286047001.4,N
1551605355.5,286047003.3,N
1551605375.3,286047003.2,N
1551605395.2,286047003.2,N
1551605415.0,286047005.6,N
1551605415.9,286047005.6,N
1551605435.8,286047004.0,N
1551605455.6,286047004.1,N
1551605475.4,286047001.8,N
1551605495.3,286047002.6,N
1551605515.1,286047000.3,N
1551605535.8,286046999.3,N
1551605555.7,286046998.2,N
1551605575.5,286046999.9,N
1551605595.4,286047002.7,N
1551605615.2,286047002.4,N
1551605635.0,286047001.9,N
1551605635.9,286047001.9,N
1551605655.8,286047002.1,N
1551605675.6,286047001.3,N
1551605695.5,286047004.2,N
1551605715.3,286047004.3,N
1551605735.1,286047003.0,N
1551605755.9,286047005.7,N
1551605775.7,286047006.2,Y
1551605795.6,286047004.9,P
1551605815.4,286047007.5,P
1551605835.2,286047004.8,N
1551605855.1,286047005.2,N
1551605856.0,286047005.2,Y
1551605875.8,286047000.9,P
1551605895.6,286047000.3,N
1551605915.5,286046998.9,N
1551605935.3,286046999.2,N
1551605955.2,286047001.1,N
1551605975.9,286046999.2,N
1551605995.7,286047000.4,N
1551606015.6,286046996.7,N
1551606035.4,286046998.5,N
1551606055.3,286046998.6,N
1551606075.1,286046996.8,N
1551606076.0,286046996.8,N
1551606095.8,286046997.8,N
1551606115.7,286046997.9,N
1551606135.5,286046993.4,Y
1551606155.3,286046996.0,P
1551606175.2,286046995.1,P
1551606195.0,286046996.9,N
1551606195.9,286046996.9,N
1551606215.8,286046997.4,N
1551606235.6,286046999.5,N
1551606255.4,286046997.0,N
1551606275.3,286046996.8,N
1551606295.1,286046999.0,N
1551606315.9,286046997.4,N
1551606335.7,286046998.7,N
1551606355.5,286047000.7,N
1551606375.4,286047000.7,N
1551606395.2,286047000.9,N
1551606415.0,286047002.7,N
1551606415.9,286047002.7,N
1551606435.8,286047000.4,N
1551606455.6,286047002.4,N
1551606475.5,286047000.4,N
1551606495.3,286046999.7,N
1551606515.1,286046998.1,N
1551606535.9,286046998.8,N
1551606555.7,286047001.1,N
1551606575.5,286046998.8,N
1551606595.4,286046999.1,N
1551606615.2,286046996.8,N
1551606635.1,286046999.3,N
1551606636.0,286046999.3,N
1551606655.8,286046997.0,N
1551606675.6,286046996.3,N
1551606695.5,286046992.8,Y
1551606715.3,286046990.9,P
1551606735.2,286046991.3,N
1551606755.9,286046991.3,N
1551606775.7,286046988.6,Y
1551606795.6,286046997.1,P
1551606815.4,286046995.3,N
1551606835.3,286046995.6,N
1551606855.1,286046996.4,N
1551606856.0,286046996.4,N
1551606875.8,286046996.3,N
1551606895.7,286046993.5,Y
1551606915.5,286046996.8,P
1551606935.3,286046997.7,P
1551606955.2,286046995.2,P
1551606975.0,286046997.2,N
1551606975.9,286046997.2,Y
1551606995.8,286047000.2,P
1551607015.6,286046999.0,N
1551607035.4,286047001.0,N
1551607055.3,286047001.4,N
1551607075.1,286047003.0,N
1551607095.9,286047003.3,N
1551607115.7,286047006.0,N
1551607135.5,286047008.1,N
1551607155.4,286047010.0,N
1551607175.2,286047007.8,N
1551607195.0,286047008.2,N
1551607195.9,286047008.2,N
